Location: Beranovka
(49.9415°N, 12.8435°E)
Time: 21:58:59
(UTC+00:00)

CZ-2C R/B - Pass Details

Date: 10 August 2020
Orbit: 785 x 870 km, 98.3° (Epoch: 22 September)

Event Time Altitude Azimuth Distance (km) Brightness Sun altitude
Rises 19:38:33 0° 11° (N) 3,290 6.2 -9.5°
Reaches altitude 10° 19:40:54 10° 8° (N) 2,356 5.5 -9.8°
Maximum altitude 19:45:59 58° 290° (WNW) 915 3.3 -10.4°
Drops below altitude 10° 19:51:04 10° 212° (SSW) 2,357 4.9 -11.1°
Sets 19:53:26 0° 209° (SSW) 3,291 5.7 -11.4°
